Location: Allen Fire Department Station 4
(33.1073°N, 96.6988°W)
Time: 10:12:11
(UTC+00:00)

CZ-2C R/B - Pass Details

Date: 03 December 2021
Orbit: 784 x 870 km, 98.2° (Epoch: 24 January)

Event Time Altitude Azimuth Distance (km) Brightness Sun altitude
Rises 12:23:53 0° 187° (S) 3,425 6.0 -10.5°
Reaches altitude 10° 12:26:27 10° 195° (SSW) 2,484 5.2 -10.0°
Maximum altitude 12:31:31 37° 262° (W) 1,286 3.3 -9.0°
Drops below altitude 10° 12:36:33 10° 329° (NNW) 2,450 4.6 -8.0°
Sets 12:39:04 0° 338° (NNW) 3,374 5.4 -7.5°
